Location: Charlet
(45.8987°N, 6.2453°E)
Time: 12:35:38
(UTC+00:00)

Daily predictions for brighter satellites

Satellite Brightness Start Highest point End
(mag) Time Altitude Azimuth Time Altitude Azimuth Time Altitude Azimuth
USA 215 3.9 19:43:17 10° E 19:49:36 52° NNE 19:55:55 10° NW
SPOT 5 3.2 19:51:37 10° SSE 19:56:37 61° ENE 20:01:50 10° N
Cosmos 2228 3.6 19:54:01 10° N 19:57:56 38° ENE 20:01:50 10° SE
USA 186 4.2 19:56:29 10° SSW 19:58:50 21° W 20:01:10 10° NW
CZ-4C R/B 3.8 19:56:35 10° NNE 19:59:45 31° E 20:02:49 10° SSE
MOS 1 Rocket 4.1 19:56:05 10° SE 20:00:02 32° ENE 20:03:52 10° N
USA 290 3.3 19:57:38 10° SSE 20:00:17 25° ESE 20:02:56 10° NE
NOSS 3-1 (C) 2.9 19:59:25 10° SSW 20:04:12 73° SE 20:09:56 10° NE
Cosmos 1455 Rocket 4.0 20:00:54 10° NNW 20:05:07 49° W 20:09:16 10° SSW
PSLV R/B 4.4 20:03:24 10° S 20:06:54 51° W 20:10:29 10° NNW
Ariane Rocket 4.0 20:03:03 10° SE 20:07:31 32° ENE 20:11:59 10° N
Okean-O 2.7 20:03:30 10° SSE 20:07:54 87° WSW 20:12:20 10° NNW
SL-23 DEB 4.2 20:06:13 10° WNW 20:09:48 70° SSW 20:15:05 12° SE
Cosmos 2341 Rocket 4.2 20:03:56 10° SSE 20:10:03 56° E 20:16:16 10° NNE
Cosmos 1975 Rocket 3.7 20:06:42 10° SSW 20:11:06 60° WNW 20:15:31 10° N
Cosmos 1437 Rocket 2.6 20:10:10 10° S 20:13:43 61° E 20:17:20 10° NNE
ISS -3.4 20:13:54 10° WNW 20:17:11 60° NNE 20:20:09 12° ESE
BREEZE-M DEB (TANK) 2.3 20:19:08 10° WNW 20:22:34 45° NNE 20:24:15 13° E
COSMOS 2406 4.0 20:18:32 10° NNW 20:23:51 39° NE 20:28:24 14° ESE
IRS-1A Rocket 4.4 20:22:16 10° SSE 20:28:00 85° ENE 20:33:53 10° NNW
Cosmos 1606 3.8 20:28:25 10° NNW 20:31:44 38° W 20:35:00 10° SSW
MetOp-B 4.4 20:26:28 10° S 20:31:48 73° WSW 20:37:11 10° NNW
USA 307 3.3 20:35:10 10° NW 20:38:59 49° NNE 20:41:51 15° E
Cosmos 2366 rocket 3.9 20:36:27 10° S 20:42:35 80° E 20:48:45 10° N
Cosmos 1536 Rocket 3.4 20:38:20 10° S 20:42:38 79° E 20:46:57 10° N
CZ-4C R/B 3.5 20:36:01 10° NNW 20:42:43 49° NE 20:49:53 14° ESE
Cosmos 1833 Rocket 3.8 20:37:52 10° NW 20:43:05 39° WSW 20:48:15 10° S
Cosmos 1140 Rocket 4.4 20:39:53 10° N 20:44:34 34° ENE 20:47:51 17° ESE
ULPM Upper Stage 2.7 20:41:32 10° NW 20:45:56 88° NE 20:48:42 22° SE
Cosmos 1269 Rocket 4.1 20:41:04 10° NNW 20:46:24 73° ENE 20:50:10 19° SSE
NOSS 3-1 (A) 2.9 20:42:04 10° SSW 20:46:53 70° SE 20:52:38 10° NE
SL-8 Rocket 4.1 20:41:02 10° S 20:47:19 84° W 20:53:41 10° N
Cosmos 1959 Rocket 4.5 20:43:53 10° S 20:50:12 83° E 20:56:30 10° N
ERS-1 Rocket 3.2 20:49:38 13° S 20:54:05 67° WSW 20:59:05 10° NNW
Cosmos 2084 Rocket 4.2 21:00:10 10° NW 21:03:50 38° WSW 21:05:50 22° S
Okean O Rocket 4.3 21:02:22 10° WSW 21:04:25 13° W 21:06:30 10° WNW
Cosmos 2058 Rocket 4.2 21:01:20 10° NNE 21:05:07 28° ENE 21:06:45 22° ESE
Landsat 4 3.6 21:05:30 34° SE 21:06:46 60° ENE 21:10:10 10° N
Gblst 52 Del rocket 4.3 21:02:45 10° SSW 21:08:25 48° SE 21:13:41 10° ENE
Gbstr 26 Del rocket 3.6 21:04:28 10° WNW 21:09:02 67° NNE 21:13:14 17° ESE
Lacrosse 5 4.0 21:06:06 10° NW 21:10:11 24° N 21:14:16 10° ENE
Cosmos 2082 Rocket 2.2 21:08:46 10° NNW 21:14:24 75° WSW 21:17:46 25° SSE
Cosmos 2369 Rocket 3.4 21:15:09 22° ESE 21:16:01 22° E 21:20:16 10° NE
ATLAS 3B R/B 2.9 21:09:23 10° SW 21:16:32 90° SE 21:24:15 10° NE
USA 229 DEB 3.9 21:13:01 19° S 21:17:01 41° ESE 21:23:08 10° NE
USA 229 3.9 21:13:14 19° S 21:17:07 41° ESE 21:23:13 10° NE
USA 305 2.4 21:13:48 10° WNW 21:17:26 61° SW 21:18:10 46° SSE
Spot 2 Rocket 4.0 21:14:27 18° S 21:18:12 56° W 21:23:13 10° NNW
Cosmos 1943 Rocket 2.4 21:12:37 10° SSW 21:18:16 73° WNW 21:23:53 10° NNE
Cosmos 2278 Rocket 3.2 21:14:14 10° SW 21:19:40 48° WNW 21:25:10 10° NNE
NOSS 8 (H) 4.4 21:17:35 10° NW 21:20:45 88° NE 21:21:58 41° SE
Terra 2.9 21:20:35 15° SSW 21:24:10 39° W 21:28:38 10° NNW
Cosmos 1782 4.3 21:23:31 10° NNE 21:26:24 20° ENE 21:27:00 20° E
SL-08 R/B 4.4 21:22:47 24° S 21:26:36 68° E 21:32:42 10° NNE
Lacrosse 4 Rocket 3.1 21:28:41 17° E 21:28:41 17° E 21:30:29 10° ENE
Iridium 921 4.4 21:29:00 53° SE 21:29:29 61° E 21:32:50 10° N
Cosmos 1934 Rocket 4.3 21:28:42 28° SE 21:31:34 47° E 21:37:26 10° NNE
SPOT 3 Rocket 4.2 21:28:25 20° S 21:31:51 52° W 21:36:57 10° NNW
USA 215 3.4 21:28:45 27° SSE 21:32:30 65° SW 21:39:03 10° NW
Cosmos 2251 Rocket 3.9 21:31:05 10° NNW 21:36:19 53° ENE 21:38:33 32° ESE
EP 1 4.5 21:34:50 10° NW 21:37:34 72° SW 21:37:39 71° SW
H-2A R/B 4.4 21:38:19 14° ENE 21:39:12 15° ENE 21:41:23 10° NNE
ARIANE 5 R/B 3.5 21:39:29 30° ESE 21:40:50 38° ENE 21:44:59 10° N
Cosmos 1892 Rocket 3.5 21:39:30 32° SSW 21:41:31 85° W 21:45:58 10° N
Cosmos 1238 Rocket 3.5 21:38:34 10° N 21:42:24 44° E 21:43:23 38° ESE
Cosmos 192 4.5 21:38:40 16° SSW 21:42:40 76° WNW 21:47:37 10° NNE
Cosmos 1812 2.7 21:39:54 10° NNW 21:43:26 66° W 21:44:11 49° SSW
SL-8 R/B 3.6 21:38:53 10° WSW 21:43:41 85° SSE 21:48:31 10° ENE
Ariane Rocket 4.2 21:43:06 17° SSW 21:46:23 35° W 21:51:01 10° NNW
Lacrosse 5 rocket 0.9 21:46:15 46° SSW 21:47:13 72° SE 21:51:04 10° NE
ALOS 2 4.4 21:51:52 18° E 21:53:09 20° ENE 21:56:20 10° NNE
BREEZE-M DEB (TANK) 3.6 21:50:31 10° WNW 21:53:14 70° NNE 21:58:36 13° ESE
Landsat 5 3.8 21:48:56 10° N 21:53:17 67° WNW 21:55:18 30° SSW
ISS -2.0 21:50:58 10° W 21:53:01 23° WSW 21:53:01 23° WSW
Cosmos 1726 Rocket 4.3 21:50:56 10° NNW 21:55:04 45° W 21:56:43 30° SW
Cosmos 1378 4.2 21:53:33 10° NNE 21:55:59 27° ENE 21:55:59 27° ENE
Cosmos 2058 2.8 21:55:22 47° SSW 21:56:30 81° W 22:00:36 10° N
Geosat 3.9 21:57:43 10° NNE 22:02:46 86° WNW 22:05:42 25° SSW
Cosmos 1656 Rocket 3.5 22:01:48 35° S 22:04:08 74° ESE 22:09:42 10° NNE
COSMOS 2406 4.2 22:02:57 10° NW 22:08:06 37° WSW 22:10:26 26° SSW
CENTAUR R/B 3.8 22:01:05 10° NW 22:08:56 51° NE 22:16:06 17° ESE
BREEZE-M DEB (TANK) 4.5 22:04:38 10° WNW 22:10:06 20° WSW 22:11:08 18° SW
USA 307 3.7 22:08:35 10° WNW 22:11:24 30° WSW 22:11:24 30° WSW
Cosmos 1666 4.4 22:14:56 20° ENE 22:14:56 20° ENE 22:16:39 10° NE
Alouette 2 Rocket 4.3 22:12:52 34° SSW 22:14:57 72° WNW 22:21:43 10° N
Cosmos 2285 Rocket 4.1 22:12:19 10° NNW 22:18:46 72° ENE 22:21:12 40° SE
Cosmos 1535 Rocket 4.4 22:17:26 41° S 22:19:43 77° E 22:25:55 10° N
Cosmos 407 Rocket 3.8 22:17:11 10° NNW 22:22:17 57° WSW 22:23:40 43° SSW
Cosmos 1500 4.2 22:24:14 30° NE 22:24:14 30° NE 22:26:28 10° NNE
Cosmos 1605 Rocket 3.9 22:22:38 43° SSE 22:24:39 71° E 22:30:50 10° NNE
COSMOS 2455 3.2 22:20:33 10° NNW 22:26:31 57° NE 22:29:02 34° ESE
CZ-4C R/B 3.4 22:24:19 10° NW 22:31:29 54° WSW 22:34:57 35° S
Milstar 3 4.4 22:26:52 10° SW 22:39:42 23° SE 22:46:17 10° ESE
Cosmos 1371 Rocket 3.9 22:33:41 54° S 22:34:50 74° ESE 22:40:10 10° NNE
USA 281 4.5 22:31:51 16° ESE 22:36:10 33° NE 22:41:55 10° N
Cosmos 1271 Rocket 3.1 22:36:00 54° W 22:36:12 55° WNW 22:39:56 10° N
Cosmos-2242 2.9 22:32:47 10° NNW 22:36:58 70° W 22:37:13 68° SW
PSLV R/B 3.7 22:34:03 10° NNE 22:38:04 86° WNW 22:38:11 83° SW
Exosat Rocket 3.5 22:35:51 10° NNW 22:41:04 76° ENE 22:42:07 55° SE
Cosmos 2297 4.0 22:38:58 26° SW 22:42:12 64° WNW 22:47:53 10° NNE
Cosmos 1833 4.3 22:36:46 10° NNW 22:42:30 70° ENE 22:44:10 46° SE
Cosmos 2058 Rocket 4.5 22:39:16 10° NNW 22:42:58 28° W 22:43:57 25° WSW
CZ-2C R/B 4.3 22:38:45 10° N 22:43:19 54° WNW 22:44:51 37° SW
Cosmos 1825 Rocket 4.3 22:44:10 38° E 22:44:10 38° E 22:47:55 10° NNE
Cosmos 44 Rocket 3.8 22:46:39 46° ESE 22:46:39 46° ESE 22:51:10 10° NE
Cosmos 1447 Rocket 4.4 22:43:01 10° N 22:49:16 82° E 22:51:03 50° SSE
SJ 16-02 3.6 22:50:09 10° NNE 22:53:02 17° NE 22:54:46 14° E
Cosmos 1812 Rocket 3.4 22:49:08 10° N 22:53:37 79° W 22:53:51 76° SW
Lacrosse 5 2.8 22:49:21 10° NW 22:54:12 45° NNE 22:57:14 21° E
Cosmos 1602 Rocket 3.5 22:54:51 72° WSW 22:55:05 74° W 22:59:26 10° N
Gbstr 26 Del rocket 4.2 22:50:56 10° WNW 22:55:25 40° SW 22:55:25 40° SW
Meteor 2-14 Rocket 4.4 22:49:46 10° N 22:55:55 77° E 22:57:35 50° SSE
Meteor 2-3 Rocket 4.0 22:56:57 41° SW 22:58:51 63° WNW 23:04:28 10° N
Cosmos 2369 Rocket 2.6 22:56:53 30° SW 22:59:33 59° WNW 23:05:08 10° NNE
Cosmos 1153 Rocket 4.4 22:58:40 50° S 23:00:24 79° E 23:06:45 10° N
Cosmos 1954 Rocket 4.0 22:55:37 10° NNW 23:00:45 65° WSW 23:01:25 58° SSW
Cosmos 1782 4.1 22:58:45 10° NNW 23:01:56 29° W 23:01:56 29° W
Cosmos 1953 Rocket 4.4 23:03:19 38° E 23:03:19 38° E 23:07:18 10° NNE
NOSS 3-2 (A) 4.3 22:57:37 10° NW 23:04:53 64° NE 23:10:30 23° ESE
Lacrosse 4 Rocket 2.3 23:04:32 37° W 23:05:27 44° NW 23:09:26 10° NNE
Spot 2 3.9 23:06:51 78° E 23:06:54 78° ENE 23:11:04 10° NNW
Cosmos 1624 Rocket 4.3 23:05:33 43° SW 23:07:07 63° WNW 23:12:21 10° NNE
USA 81 4.4 23:02:11 10° NNW 23:07:19 54° W 23:08:23 46° SW
USA 229 DEB 4.4 23:01:51 10° WSW 23:07:50 47° NW 23:14:26 10° NNE
USA 229 4.4 23:01:58 10° WSW 23:07:56 48° NW 23:14:33 10° NNE
Cosmos 1862 3.9 23:10:26 48° WNW 23:10:26 48° WNW 23:14:03 10° N
SeaSat 1 2.7 23:11:05 50° ESE 23:12:09 63° ENE 23:17:02 10° NNW
H-2A R/B 3.0 23:14:16 44° WNW 23:14:16 44° WNW 23:17:25 10° NNW
Meteor 2-6 Rocket 4.4 23:08:41 10° N 23:14:41 70° ENE 23:16:08 51° SE
Cosmos 1758 Rocket 4.5 23:14:35 36° W 23:15:11 38° WNW 23:19:14 10° N
Cosmos 2151 3.4 23:15:32 51° ENE 23:15:32 51° ENE 23:19:20 10° NNE
Cosmos 1850 Rocket 4.4 23:11:16 10° NNW 23:16:26 57° ENE 23:17:37 46° ESE
Cosmos 1461 3.7 23:13:25 10° NW 23:16:06 38° WNW 23:16:06 38° WNW
ARIANE 5 R/B 4.2 23:16:57 23° WSW 23:17:19 24° W 23:20:57 10° NW
PSLV R/B 3.6 23:14:22 10° NNE 23:18:49 70° ESE 23:18:49 70° ESE
Cosmos 2221 2.4 23:14:40 10° N 23:18:49 84° N 23:18:49 84° N
Cosmos 2297 Rocket 4.1 23:16:58 10° N 23:21:31 24° NE 23:26:03 10° E
Cosmos 1452 Rocket 3.6 23:21:54 55° ESE 23:22:12 56° ESE 23:27:20 10° NNE
Cosmos 2056 Rocket 4.3 23:21:02 32° WSW 23:23:00 46° WNW 23:28:00 10° N
Cosmos 2344 4.2 23:22:54 33° SE 23:24:03 35° ESE 23:30:28 10° NE
Lacrosse 5 rocket 3.4 23:22:36 10° W 23:25:49 26° NNW 23:29:11 10° NE
SL-8 R/B 4.1 23:21:33 10° W 23:26:20 63° N 23:31:06 10° E
ATLAS CENTAUR R/B 3.7 23:28:31 33° ESE 23:28:31 33° ESE 23:35:05 10° ENE
ALOS 2 3.1 23:29:16 47° W 23:29:16 47° W 23:33:25 10° NNW
Cosmos 1331 Rocket 3.9 23:31:59 62° SE 23:32:18 63° ESE 23:37:24 10° NNE
Cosmos 1340 Rocket 3.0 23:35:11 10° N 23:38:36 66° N 23:38:36 66° N
USA 59 Rocket 1.1 23:42:38 29° NNE 23:42:38 29° NNE 23:44:14 10° NE
Meteor 2-15 Rocket 4.3 23:42:09 56° S 23:43:34 85° E 23:49:42 10° N
Cosmos 1842 Rocket 3.5 23:47:16 10° N 23:51:45 79° E 23:51:48 79° E
Cosmos 1459 Rocket 4.0 23:50:37 50° SSW 23:52:21 75° W 23:58:40 10° N
Cosmos 1076 Rocket 3.4 23:52:46 84° NE 23:52:46 84° NE 23:57:01 10° N
